カタログに戻る

KUIPER-00085

運用中通信LEO
NORAD 64831·PAYLOAD·🇺🇸 United States

打ち上げ Jul 16, 2025 から Cape Canaveral Space Force Station

Loading…

次のパス (今後24時間)

TLE

最新Source: CelesTrak SupGP

元期: Sep 14, 2026, 14:30 UTC

1 64831C 25151R   26257.60459491  .00004575  00000+0  59903-3 0  2572
2 64831  51.9017 172.8002 0000893  89.4717 184.5298 14.79917039    11

AllMySatでKUIPER-00085をリアルタイム追跡

Download on the App Store